Weather History for Columbia, MO

Change the Weather History Date:

Sunday, August 4, 2013

  Actual Average Record
Temperature  
Mean Temperature 70 °F 77 °F  
Max Temperature 77 °F 88 °F 108 °F (1918)
Min Temperature 63 °F 67 °F 44 °F (1894)
Degree Days  
Heating Degree Days 0 0  
Month to date heating degree days 0 0  
Since 1 June heating degree days 6 11  
Since 1 July heating degree days 0 0  
Cooling Degree Days 5 12  
Month to date cooling degree days 35 48  
Year to date cooling degree days 758 781  
Since 1 June cooling degree days 624 678  
Growing Degree Days 20 (Base 50)    
Moisture  
Dew Point 63 °F    
Average Humidity 77    
Maximum Humidity 93    
Minimum Humidity 60    
Precipitation  
Precipitation 0.00 in 0.13 in 2.40 in (1953)
Month to date precipitation 0.47 0.51  
Year to date precipitation 31.68 25.90  
Snow  
Snow 0.00 in 0.00 in 0.00 in (2013)
Month to date snowfall 0.0 0.0  
Since 1 June snowfall 0.0 0.0  
Since 1 July snowfall 0.0 0.0  
Snow Depth 0.00 in    
Sea Level Pressure  
Sea Level Pressure 30.12 in    
Wind  
Wind Speed 6 mph (ESE)    
Max Wind Speed 13 mph    
Max Gust Speed 16 mph    
Visibility 10 miles    
Events      
T = Trace of Precipitation, MM = Missing Value Source: NWS Daily Summary

Daily Weather History Graph

Daily Weather History Graph

Search for Another Location

Airport:

Trip Planner

Search our weather history database for the weather conditions in past years. The results will help you decide how hot, cold, wet, or windy it might be!

Date:

Astronomy

Aug. 04, 2013 Rise Set
Actual Time 6:12 AM CDT 8:16 PM CDT
Civil Twilight 5:43 AM CDT 8:45 PM CDT
Nautical Twilight 5:07 AM CDT 9:21 PM CDT
Astronomical Twilight 4:28 AM CDT 10:00 PM CDT
Moon 4:14 AM CDT (8/4) 6:39 PM CDT (8/4)
Length of Visible Light 15h 02m
Length of Day
14h 03m
Waning Crescent, 4% of the Moon is Illuminated
Aug 4
Waning Crescent
Aug 6
New
Aug 14
First Quarter
Aug 20
Full
Aug 28
Last Quarter

Hourly Weather History & Observations

Time (CDT) Temp. Dew Point Humidity Pressure Visibility Wind Dir Wind Speed Gust Speed Precip Events Conditions
12:54 AM 66.9 °F 62.1 °F 84% 30.14 in 10.0 mi ENE 5.8 mph - N/A   Clear
1:54 AM 68.0 °F 61.0 °F 78% 30.13 in 10.0 mi ENE 4.6 mph - N/A   Partly Cloudy
2:54 AM 66.0 °F 61.0 °F 84% 30.10 in 10.0 mi ENE 6.9 mph - N/A   Partly Cloudy
3:54 AM 64.9 °F 60.1 °F 84% 30.14 in 10.0 mi NE 8.1 mph - N/A   Clear
4:54 AM 64.9 °F 59.0 °F 81% 30.14 in 10.0 mi ENE 5.8 mph - N/A   Clear
5:54 AM 63.0 °F 60.1 °F 90% 30.14 in 10.0 mi ENE 5.8 mph - N/A   Clear
6:54 AM 64.9 °F 60.1 °F 84% 30.14 in 10.0 mi East 6.9 mph - N/A   Clear
7:54 AM 66.0 °F 60.1 °F 81% 30.16 in 10.0 mi East 5.8 mph - N/A   Partly Cloudy
8:54 AM 71.1 °F 62.1 °F 73% 30.16 in 10.0 mi ESE 8.1 mph - N/A   Scattered Clouds
9:54 AM 73.0 °F 62.1 °F 68% 30.16 in 10.0 mi East 8.1 mph - N/A   Mostly Cloudy
10:54 AM 73.9 °F 61.0 °F 64% 30.17 in 10.0 mi SE 6.9 mph - N/A   Clear
11:54 AM 75.9 °F 61.0 °F 60% 30.17 in 10.0 mi SSE 8.1 mph - N/A   Overcast
12:54 PM 77.0 °F 62.1 °F 60% 30.14 in 10.0 mi SE 6.9 mph - N/A   Scattered Clouds
1:54 PM 75.0 °F 64.0 °F 69% 30.14 in 10.0 mi South 4.6 mph - N/A   Overcast
2:54 PM 75.0 °F 64.0 °F 69% 30.13 in 10.0 mi SE 4.6 mph - N/A   Overcast
3:54 PM 73.9 °F 64.9 °F 73% 30.11 in 10.0 mi SSE 5.8 mph - N/A   Mostly Cloudy
4:54 PM 73.0 °F 66.0 °F 79% 30.11 in 10.0 mi SSE 8.1 mph - N/A   Scattered Clouds
5:54 PM 73.0 °F 66.9 °F 81% 30.09 in 10.0 mi South 8.1 mph - N/A   Clear
6:54 PM 72.0 °F 66.0 °F 81% 30.08 in 10.0 mi ESE 3.5 mph - N/A   Clear
7:54 PM 71.1 °F 66.0 °F 84% 30.05 in 10.0 mi SE 6.9 mph - N/A   Clear
8:54 PM 70.0 °F 66.0 °F 87% 30.06 in 10.0 mi ESE 4.6 mph - N/A   Clear
9:54 PM 70.0 °F 66.9 °F 90% 30.09 in 10.0 mi Calm Calm - N/A   Overcast
10:54 PM 70.0 °F 66.0 °F 87% 30.09 in 10.0 mi SE 5.8 mph - N/A   Overcast
11:54 PM 70.0 °F 66.0 °F 87% 30.07 in 10.0 mi ESE 5.8 mph - N/A   Overcast